483  
SXUS52 KCHS 212013  
OSOCHS  
 
MARINE OBSERVATIONS  
NATIONAL WEATHER SERVICE CHARLESTON SC  
300 PM EST SUN JAN 21 2018  
   
..DOWNTOWN CHARLESTON AND HARBOR
 
 
 
CITY SKY/WX TMP DP RH WIND PRES REMARKS  
WATERFRONT PRK NOT AVBL  
   
..LAKE MOULTRIE
 
 
 
CITY SKY/WX TMP DP RH WIND PRES REMARKS  
PINOPOLIS N/A 57 43 58 VRB3 30.11F  
   
..LAKE AND SUPPLEMENTAL COASTAL OBSERVATIONS
 
 
 
STATION/POSITION TIME TEMP WIND PRES WAVE SWELL  
AIR SEA DIR/SP/G HT/PER HT/PER/DIR  
(UTC) (F) (DEG/KT/KT) (MB) (FT/S) (FT/S/D)  
FORT PULASKI 1948 62 46 170/ 7/ 9 1023.0F  
SAPELO ISLAND 1900 65 110/ 5 1023.0  
WINYAH BAY NOT AVBL  
LAKE MURRAY 1920 65 CALM 1022.0  
ACE BASIN NERRS 1845 62 180/ 2 1023.0  
 
   
..C-MAN AND BUOY OBSERVATIONS
 
 
 
STATION/POSITION TIME TEMP WIND PRES WAVE SWELL  
AIR SEA DIR/SP/G HT/PER HT/PER/DIR  
(UTC) (F) (DEG/KT/KT) (MB) (FT/S) (FT/S/D)  
BUOY 41004 2000 62 70 260/ 6/ 8 1023.2  
BUOY 41008 1950 58 52 CALM 1023.3F 1/10  
FOLLY BEACH CMAN 2000 54 200/ 3/ 4 1024.0F  
CAPERS NS BUOY 1908 52 50 190/ 2/ 4 1023.4F  
FRIPP NS BUOY 1908 51 47 230/ 4/ 6 1022.8F  
5E ST. MARYS GA 2000 53 N/A 1/11 2/120/11  
 
 
STATION/POSITION TIME TEMP WIND PRES WAVE SWELL  
AIR SEA DIR/SP/G HT/PER HT/PER/DIR  
(UTC) (F) (DEG/KT/KT) (MB) (FT/S) (FT/S/D)  
FRYING PAN BUOY 2000 52 53 300/ 2/ 2 1023.6  
BUOY 41025 2000 55 73 290/ 6/ 10 1023.3  
CAPE LOOKOUT NC 2000 200/ 4/ 5 1023.1F  
BUOY 41002 1950 66 70 320/ 10/ 12 1023.2F 3/ 6 3/320/ 6  
BUOY 41010 NOT AVBL  
ST AUGUSTINE FL 2000 54 53 360/ 9/ 10 1023.1F  
 

 
 
 
CLICK HERE TO GO TO PREVIOUS BULLETINS.

The Nexlab SC Page
The Nexlab GA Page Main Text Page